Location: Munkebjergskolens Observatorium
(55.3864°N, 10.3987°E)
Time: 22:55:08
(UTC+01:00)

Envisat - Pass Details

Date: 04 December 2022
Orbit: 763 x 765 km, 98.2° (Epoch: 01 February)

Event Time Altitude Azimuth Distance (km) Brightness Sun altitude
Rises 03:01:18 0° 26° (NNE) 3,248 6.8 -44.0°
Reaches altitude 10° 03:04:47 10° 51° (NE) 2,315 6.1 -43.5°
Enters shadow 03:06:03 13° 65° (ENE) 2,116 5.8 -43.4°
